DAL147 KATL-SCEL

Flight info

Callsign DAL147
Flight time N/A
Altitude 37000
Route SMLTZ3 WALET DCT ZPLEN Q79 VAULT/N0485F380 Q79 MCLAW Y442 FUNDI/N0486F370 UM335 LEPON DCT ARNAL/N0487F390 UL465 TBG UM542 AKTUK DCT MIPAS DCT ISREN DCT TOPIX DCT ILMAR/N0479F410 DCT IREMI UL302 TOY DCT EMBAL DCT SIMOK SIMOK7B
Aircraft A359/H-SDE2E3GHIJ3J4J5LM1ORWXY/LB1D1

Departure

Time 2026-05-06 05:04
Airport Hartsfield Jackson Atlanta International Airport (KATL)

Arrival

Time N/A
Airport Comodoro Arturo Merino Benítez International Airport (SCEL)
Time Latitude Longitude Altitude Speed Heading
2026-05-06 04:34 33.63996 -84.42468 1042 ft 0 kts 318°
2026-05-06 04:49 33.63993 -84.42465 1042 ft 3 kts 317°
2026-05-06 04:49 33.63974 -84.42442 1042 ft 4 kts 311°
2026-05-06 04:49 33.63957 -84.42417 1043 ft 4 kts 303°
2026-05-06 04:50 33.63944 -84.42389 1043 ft 4 kts 294°
2026-05-06 04:50 33.63935 -84.42358 1043 ft 4 kts 281°
2026-05-06 04:50 33.63932 -84.42331 1042 ft 1 kts 270°
2026-05-06 04:50 33.63932 -84.42330 1042 ft 0 kts 270°
2026-05-06 04:55 33.63932 -84.42332 1042 ft 0 kts 270°
2026-05-06 04:55 33.63932 -84.42334 1042 ft 2 kts 270°
2026-05-06 04:56 33.63931 -84.42358 1042 ft 5 kts 264°
2026-05-06 04:56 33.63913 -84.42402 1042 ft 6 kts 226°
2026-05-06 04:56 33.63870 -84.42418 1042 ft 7 kts 185°
2026-05-06 04:56 33.63813 -84.42420 1042 ft 10 kts 181°
2026-05-06 04:57 33.63734 -84.42420 1042 ft 12 kts 180°
2026-05-06 04:57 33.63676 -84.42418 1042 ft 3 kts 168°
2026-05-06 04:57 33.63662 -84.42382 1042 ft 8 kts 104°
2026-05-06 04:57 33.63656 -84.42287 1042 ft 12 kts 92°
2026-05-06 04:58 33.63656 -84.42181 1042 ft 13 kts 89°
2026-05-06 04:58 33.63656 -84.42066 1042 ft 15 kts 89°
2026-05-06 04:58 33.63656 -84.41938 1041 ft 16 kts 90°
2026-05-06 04:58 33.63656 -84.41800 1041 ft 17 kts 90°
2026-05-06 04:59 33.63656 -84.41653 1041 ft 18 kts 90°
2026-05-06 04:59 33.63656 -84.41500 1041 ft 19 kts 90°
2026-05-06 04:59 33.63656 -84.41343 1041 ft 19 kts 90°
2026-05-06 04:59 33.63657 -84.41184 1041 ft 19 kts 90°
2026-05-06 05:00 33.63656 -84.41022 1041 ft 19 kts 90°
2026-05-06 05:00 33.63656 -84.40870 1042 ft 16 kts 90°
2026-05-06 05:00 33.63650 -84.40778 1042 ft 9 kts 110°
2026-05-06 05:00 33.63605 -84.40751 1042 ft 6 kts 176°
2026-05-06 05:01 33.63600 -84.40751 1042 ft 0 kts 179°
2026-05-06 05:02 33.63555 -84.40750 1042 ft 10 kts 179°
2026-05-06 05:02 33.63488 -84.40752 1042 ft 4 kts 193°
2026-05-06 05:02 33.63483 -84.40764 1042 ft 1 kts 242°
2026-05-06 05:03 33.63480 -84.40770 1042 ft 4 kts 243°
2026-05-06 05:03 33.63473 -84.40824 1042 ft 8 kts 265°
2026-05-06 05:03 33.63473 -84.40837 1042 ft 0 kts 268°
2026-05-06 05:03 33.63472 -84.40866 1042 ft 19 kts 268°
2026-05-06 05:04 33.63470 -84.41312 1041 ft 86 kts 270°
2026-05-06 05:04 33.63471 -84.42277 1042 ft 143 kts 270°
2026-05-06 05:04 33.63483 -84.43650 1265 ft 172 kts 269°
2026-05-06 05:04 33.63505 -84.44577 1776 ft 165 kts 267°
2026-05-06 05:05 33.63526 -84.45924 2480 ft 162 kts 262°
2026-05-06 05:05 33.63495 -84.47312 2833 ft 173 kts 262°
2026-05-06 05:05 33.63443 -84.48825 3132 ft 189 kts 262°
2026-05-06 05:05 33.63410 -84.50481 3423 ft 209 kts 263°
2026-05-06 05:06 33.63385 -84.52301 3744 ft 226 kts 264°
2026-05-06 05:06 33.63382 -84.54258 4015 ft 244 kts 265°
2026-05-06 05:06 33.63397 -84.56360 4461 ft 255 kts 267°
2026-05-06 05:06 33.63424 -84.58488 5209 ft 254 kts 267°
2026-05-06 05:07 33.63438 -84.60577 5993 ft 252 kts 268°
2026-05-06 05:07 33.63432 -84.62670 6775 ft 250 kts 266°
2026-05-06 05:07 33.63108 -84.64718 7408 ft 253 kts 249°
2026-05-06 05:07 33.62143 -84.66491 8066 ft 259 kts 226°
2026-05-06 05:08 33.60670 -84.67771 8768 ft 265 kts 214°
2026-05-06 05:08 33.59042 -84.68852 9430 ft 271 kts 210°
2026-05-06 05:08 33.57204 -84.69501 10082 ft 283 kts 191°
2026-05-06 05:08 33.55183 -84.69389 10586 ft 298 kts 177°
2026-05-06 05:09 33.53118 -84.68987 11133 ft 304 kts 176°
2026-05-06 05:09 33.51009 -84.68554 11687 ft 310 kts 176°
2026-05-06 05:09 33.48863 -84.68125 12269 ft 315 kts 176°
2026-05-06 05:09 33.46680 -84.67700 12836 ft 320 kts 176°
2026-05-06 05:10 33.44463 -84.67270 13425 ft 325 kts 176°
2026-05-06 05:10 33.42254 -84.66506 13949 ft 338 kts 158°
2026-05-06 05:10 33.40278 -84.64877 14305 ft 355 kts 140°
2026-05-06 05:10 33.38467 -84.62774 14528 ft 371 kts 137°
2026-05-06 05:11 33.36618 -84.60534 14776 ft 385 kts 137°
2026-05-06 05:11 33.34694 -84.58219 15013 ft 399 kts 137°
2026-05-06 05:11 33.32699 -84.55840 15237 ft 412 kts 137°
2026-05-06 05:11 33.30641 -84.53399 15521 ft 421 kts 137°
2026-05-06 05:12 33.28546 -84.50922 15950 ft 426 kts 138°
2026-05-06 05:12 33.26424 -84.48418 16390 ft 431 kts 138°
2026-05-06 05:12 33.24306 -84.45922 16815 ft 436 kts 138°
2026-05-06 05:12 33.22131 -84.43363 17286 ft 441 kts 138°
2026-05-06 05:13 33.19934 -84.40781 17757 ft 445 kts 138°
2026-05-06 05:13 33.17715 -84.38174 18203 ft 450 kts 139°
2026-05-06 05:13 33.15471 -84.35542 18633 ft 454 kts 139°
2026-05-06 05:13 33.13217 -84.32897 19109 ft 456 kts 139°
2026-05-06 05:14 33.10944 -84.30233 19575 ft 458 kts 139°
2026-05-06 05:14 33.08666 -84.27565 20034 ft 461 kts 139°
2026-05-06 05:14 33.06372 -84.24881 20491 ft 463 kts 139°
2026-05-06 05:14 33.04064 -84.22183 20952 ft 466 kts 139°
2026-05-06 05:15 33.01709 -84.19514 21369 ft 467 kts 142°
2026-05-06 05:15 32.99079 -84.17267 21781 ft 464 kts 155°
2026-05-06 05:15 32.96168 -84.15640 22210 ft 462 kts 163°
2026-05-06 05:15 32.93160 -84.14276 22638 ft 463 kts 166°
2026-05-06 05:16 32.90110 -84.13032 23054 ft 464 kts 167°
2026-05-06 05:16 32.87040 -84.11830 23486 ft 467 kts 167°
2026-05-06 05:16 32.83940 -84.10620 23850 ft 470 kts 167°
2026-05-06 05:16 32.80863 -84.09404 24191 ft 473 kts 167°
2026-05-06 05:17 32.77732 -84.08148 24534 ft 477 kts 167°
2026-05-06 05:17 32.74576 -84.06866 24868 ft 480 kts 166°
2026-05-06 05:17 32.71395 -84.05566 25139 ft 485 kts 166°
2026-05-06 05:17 32.68195 -84.04254 25491 ft 488 kts 166°
2026-05-06 05:18 32.64975 -84.02931 25867 ft 491 kts 166°
2026-05-06 05:18 32.61742 -84.01603 26235 ft 494 kts 167°
2026-05-06 05:18 32.58477 -84.00266 26599 ft 497 kts 167°
2026-05-06 05:18 32.55206 -83.98927 26959 ft 499 kts 167°
2026-05-06 05:19 32.51908 -83.97580 27317 ft 502 kts 167°
2026-05-06 05:19 32.48597 -83.96229 27660 ft 505 kts 167°
2026-05-06 05:19 32.45264 -83.94870 27970 ft 509 kts 167°
2026-05-06 05:19 32.41904 -83.93502 28276 ft 512 kts 167°
2026-05-06 05:20 32.38530 -83.92128 28628 ft 514 kts 167°
2026-05-06 05:20 32.35140 -83.90755 28966 ft 516 kts 167°
2026-05-06 05:20 32.31755 -83.89470 29291 ft 517 kts 169°
2026-05-06 05:20 32.28306 -83.88237 29621 ft 519 kts 170°